This is the latest recevied weather packets stored in our database for station/object N6RDS-8. If no packets are shown the sender has not sent any weather packets the latest 10 day(s).
| Time | Temp. | Humidity | Pressure | Rain* | Wind** | Luminosity | Snow |
|---|---|---|---|---|---|---|---|
| 1777691591 | 16.11° C | 45% | 1016.5 hPa | 0 mm | - | 0 W/m² | - |
| 1777691289 | 16.67° C | 50% | 1016.2 hPa | 0 mm | - | 0 W/m² | - |
| 1777690987 | 16.67° C | 47% | 1016.2 hPa | 0 mm | - | 0 W/m² | - |
| 1777690684 | 17.22° C | 43% | 1016.2 hPa | 0 mm | - | 0 W/m² | - |
| 1777690382 | 17.22° C | 42% | 1016.4 hPa | 0 mm | - | 0 W/m² | - |
| 1777690079 | 17.78° C | 43% | 1016 hPa | 0 mm | - | 0 W/m² | - |
| 1777689776 | 18.33° C | 40% | 1016.1 hPa | 0 mm | - | 0 W/m² | - |
| 1777689475 | 18.89° C | 41% | 1016.1 hPa | 0 mm | - | 0 W/m² | - |
| 1777689172 | 20° C | 37% | 1016 hPa | 0 mm | - | 0 W/m² | - |
| 1777688869 | 20.56° C | 35% | 1015.9 hPa | 0 mm | - | 0 W/m² | - |
| 1777688565 | 20.56° C | 34% | 1016.2 hPa | 0 mm | - | 0 W/m² | - |
| 1777688263 | 20.56° C | 34% | 1015.9 hPa | 0 mm | - | 0 W/m² | - |
| 1777687960 | 21.11° C | 34% | 1015.8 hPa | 0 mm | - | 1 W/m² | - |
| 1777687657 | 21.67° C | 32% | 1015.8 hPa | 0 mm | - | 1 W/m² | - |
| 1777687355 | 22.22° C | 31% | 1015.7 hPa | 0 mm | - | 3 W/m² | - |
| 1777687052 | 22.22° C | 31% | 1015.7 hPa | 0 mm | - | 5 W/m² | - |
| 1777686748 | 22.78° C | 31% | 1015.6 hPa | 0 mm | - | 7 W/m² | - |
| 1777686446 | 22.78° C | 30% | 1015.5 hPa | 0 mm | - | 10 W/m² | - |
| 1777686143 | 23.33° C | 30% | 1015.3 hPa | 0 mm | - | 13 W/m² | - |
| 1777685839 | 23.89° C | 29% | 1015.5 hPa | 0 mm | - | 17 W/m² | - |
| 1777685534 | 23.89° C | 28% | 1015.2 hPa | 0 mm | - | 19 W/m² | - |
| 1777685231 | 23.89° C | 28% | 1015.2 hPa | 0 mm | - | 24 W/m² | - |
| 1777684930 | 24.44° C | 27% | 1015.2 hPa | 0 mm | - | 24 W/m² | - |
| 1777684626 | 24.44° C | 26% | 1015.2 hPa | 0 mm | - | 27 W/m² | - |
| 1777684322 | 24.44° C | 26% | 1015.1 hPa | 0 mm | - | 29 W/m² | - |
* Rain latest hour (hover to see other rain measurements)
** Current wind speed in m/s (hover to see current wind gust speed)